Starlink 11433

operational
NORAD ID: 62008 Int'l Des: 2024-213 Owner: SPXS Country: US Constellation: starlink
LEOCIRCULAR

About Starlink 11433

Description loading...

Live Position

Loading 3D Globe...

Upcoming Passes

Altitude History

Altitude vs Time

uPlot chart will show altitude changes over time

Two-Line Element Set

1 62008U 24213A 25306.26278610 .00251149 00000-0 20107-2 0 9990
2 62008 53.1562 309.2603 0001547 46.9376 313.1771 15.69770771 54906
Epoch: Nov 2, 2025 • Age: 13 hours

Current Status

Altitude 375.2 km
Velocity 7.68 km/s
Sub-Earth Point -47.05°S, 85.68°W
Launch Date Nov 18, 2024
Age 0.9 years
Type internet

Technical Details

Classification Payload
Mass 960.00 kg
Dry Mass 910.00 kg
Total Mass 960.00 kg
Length 0.30 m
Diameter 4.10 m
Span 29.00 m
Shape Box + pan
Manufacturer SPXS
Bus Type Starlink V2MD
Phase Status In Orbit
Owner/State SPXS/US

Large Constellations

Loading constellations...